Other Surface Observations
Issued by NWS

Home | Current Version | Previous Version | Text Only | Print | Product List | Glossary On
Versions: 1 2 3 4 5 6 7 8 9 10 11 12 13 14 15 16 17 18 19 20 21 22 23 24 25 26 27 28 29 30 31 32 33 34 35 36 37 38 39 40 41 42 43 44 45 46 47 48 49 50
000
SXUS52 KTAE 231918
OSOTAE
OSOTAE
North Florida/South Alabama/Southwest Georgia Weather Roundup
National Weather Service Tallahassee Florida
300 PM EDT SAT JUL 23 2016

Note: "fair" indicates few or no clouds below 12,000 feet with no
significant weather and/or obstructions to visibility.

!FLZ017-115-028-034-025-232000
...North Florida...

CITY           SKY/WX    TMP DP  RH WIND       PRES   REMARKS
TALLAHASSEE    MOSUNNY   93  70  46 CALM      30.00F HX  99
APALACHICOLA   SUNNY     90  78  68 SE12      30.01F HX 104
PERRY          SUNNY     93  72  50 SE5       30.01F HX 100
CROSS CITY       N/A     91  70  49 VRB3      30.00F HX  96
JACKSONVILLE   PTSUNNY   94  71  47 SE14      29.99F HX 101
$$

!FLZ112-006-005-002-011-232000
...Florida Panhandle...

CITY           SKY/WX    TMP DP  RH WIND       PRES   REMARKS
MARIANNA       CLOUDY    90  74  59 N6        29.99F HX  99
BONIFAY        FAIR     110  72  29 SE6       30.00F HX 122
PANAMA CITY NW FAIR      90  73  57 S12       29.99F HX  98
TYNDALL AFB    SUNNY     90  75  60 SW12      30.00F HX 100
TYND DRONE APT NOT AVBL
DE FUNIAK SPR  FAIR      89  73  60 S6        30.02F HX  97
EGLIN AFB      MOSUNNY   88  74  63 S7        30.01S HX  96
DESTIN         CLOUDY    90  78  68 S6        30.01F HX 104
HURLBURT       MOSUNNY   88  72  59 S8        30.00F HX  95
CRESTVIEW      CLOUDY    90  72  55 S12       30.02F HX  97
PENSACOLA      PTSUNNY   87  75  67 S9        30.01S HX  96
$$

!ALZ063-066-232000
...South Alabama...

CITY           SKY/WX    TMP DP  RH WIND       PRES   REMARKS
DOTHAN         MOSUNNY   90  73  57 VRB3      30.05S HX  98
OZARK CAIRNS   CLOUDY    90  75  60 SE3       30.01S HX 100
FT RUCKER HELI PTSUNNY   90  72  55 S5        30.00S HX  97
RUCKER HELI 3  FAIR      89  72  56 S6        30.03S HX  96
RUCKER HELI 2  FAIR      91  73  55 S5        30.01S HX  99
FLORALA APT    CLOUDY    90  72  55 SW6       30.02F HX  97
ANDALUSIA      CLOUDY    95  70  44 CALM      30.00F HX 101
TROY           CLOUDY    90  74  59 E5        30.02F HX  99
EUFALA         FAIR      93  72  50 SW6       30.00F HX 101
MOBILE         PTSUNNY   89  74  60 SW5       30.01F HX  98
$$

!GAZ120>161-232000
...Southwest and South Central Georgia...

CITY           SKY/WX    TMP DP  RH WIND       PRES   REMARKS
THOMASVILLE    NOT AVBL
BAINBRIDGE     MOSUNNY   91  70  49 SE5G16    30.01F HX  97
MOODY AFB      MOSUNNY   94  72  48 VRB5      30.01F HX 101
VALDOSTA       SUNNY     92  71  50 S3        30.01F HX  98
MOULTRIE       MOSUNNY   91  72  52 S3        30.02F HX  98
BLAKELY        MOSUNNY   93  72  49 CALM      30.01F HX 100
ALBANY         MOSUNNY   93  69  45 SW7       30.02F HX  98
TIFTON         FAIR      94  68  43 SE9       30.01F HX  98
FITZGERALD     FAIR      96  76  52 S7        30.03F HX 109
CORDELE        FAIR      95  71  45 W6        30.01F HX 102
AMERICUS       FAIR      91  64  40 SW6       30.03F HX  93
HOMERVILLE     FAIR      95  70  43 SE5       30.00F HX 101
$$

!GMZ750-755-770-775-232000
...Coastal and Buoy Obs...

STATION/POSITION TIME  TEMP    WIND        PRES    VSBY  WAVE
                       AIR SEA DIR/SP/G                  HT/PER
                 (UTC) (F)     (DEG/KT/KT) (MB)    (MI)  (FT/S)
KEATON BEACH     1900   86     230/  8/  9 1015.9F
CEDAR KEY        1900   86     220/  7/  9 1016.8F
C TOWER          1900   84     120/  8/  9 1017.1F
APALACHICOLA BUO 1850   82 87  210/  6/  8 1016.6F         1/ 4
PANAMA CITY BUOY 1850   82 88  140/ 10/ 12 1016.5F         1
MOBILE BUOY      1900   84 88  190/  4/  4 1016.0F
ORANGE BCH AL BU 1850   84 90  140/  6/  8 1016.2F         1/ 5
$$




USA.gov is the U.S. government's official web portal to all federal, state and local government web resources and services.